Date,TemperatureHighF,TemperatureAvgF,TemperatureLowF,DewpointHighF,DewpointAvgF,DewpointLowF,HumidityHigh,HumidityAvg,HumidityLow,PressureMaxIn,PressureMinIn,WindSpeedMaxMPH,WindSpeedAvgMPH,GustSpeedMaxMPH,PrecipitationSumIn
2013-1-1,20,6,-8,17,1,-12,87,82,67,30.41,30.15,11,1,11,0.00
2013-1-2,20,17,14,18,14,12,91,88,83,30.17,30.05,5,1,9,0.00
2013-1-3,21,15,9,18,10,5,90,82,69,30.36,30.17,9,2,9,0.00
2013-1-4,31,21,14,20,15,11,91,78,62,30.21,30.11,12,1,12,0.00
2013-1-5,27,17,8,18,13,6,93,82,65,30.18,29.94,7,1,7,0.00
2013-1-6,25,17,9,15,11,5,90,79,62,30.32,30.10,9,1,9,0.00
2013-1-7,38,29,14,27,23,11,94,78,63,30.13,29.97,15,2,15,0.04
2013-1-8,34,27,15,30,23,13,94,87,75,30.05,29.83,12,1,12,0.00
2013-1-9,35,30,22,28,24,19,90,77,61,30.42,29.98,18,2,18,0.00
2013-1-10,42,32,23,34,26,20,95,79,49,30.38,29.80,9,1,9,0.31
2013-1-11,41,37,34,40,36,33,98,97,95,29.80,29.41,9,1,9,0.04
2013-1-12,39,16,5,38,10,-1,97,77,68,30.17,29.42,24,4,24,0.00
2013-1-13,11,6,3,4,0,-2,85,78,72,30.37,30.15,9,1,9,0.00
2013-1-14,15,8,3,6,3,0,88,79,61,30.53,30.37,12,1,12,0.00
2013-1-15,28,15,8,18,11,5,91,84,60,30.40,29.93,14,1,14,0.00
2013-1-16,37,27,14,33,20,2,92,75,52,30.30,29.73,21,2,21,0.01
2013-1-17,21,13,5,11,4,-3,79,67,57,30.49,30.30,11,1,11,0.00
2013-1-18,42,30,17,32,24,11,90,79,64,30.40,29.80,13,1,13,0.00
2013-1-19,40,24,3,33,18,-4,96,79,58,30.31,29.73,22,3,22,0.00
2013-1-20,11,4,-2,2,-4,-10,80,68,55,30.51,30.31,14,2,14,0.00
2013-1-21,-2,-6,-10,-10,-13,-18,77,68,59,30.49,30.40,14,2,14,0.00
2013-1-22,5,-3,-11,-2,-10,-17,76,69,58,30.56,30.38,7,1,7,0.00
2013-1-23,19,8,-4,11,-1,-15,86,67,52,30.74,30.27,17,2,17,0.00
2013-1-24,14,3,-6,4,-7,-16,67,62,53,30.81,30.30,10,1,10,0.00
2013-1-25,20,14,4,13,6,-2,80,69,59,30.41,30.05,18,3,18,0.00
2013-1-26,24,13,0,13,5,-5,86,69,54,30.46,30.22,9,1,9,0.00
2013-1-27,33,30,22,30,24,13,95,79,61,30.22,29.86,9,1,9,0.01
2013-1-28,36,32,30,34,31,29,97,95,93,29.96,29.69,7,0,7,0.18
2013-1-29,37,33,28,33,30,23,97,90,81,29.80,29.57,11,1,11,0.19
2013-1-30,28,18,9,23,12,3,82,77,72,29.84,29.69,13,3,13,0.00
2013-1-31,9,2,-8,3,-4,-15,81,73,67,30.40,29.85,10,3,17,0.00
2013-2-1,5,-2,-12,2,-9,-18,86,72,54,30.46,30.18,10,1,10,0.00
2013-2-2,15,8,2,7,2,-3,87,77,57,30.31,30.08,7,0,7,0.00
2013-2-3,17,11,4,9,6,0,88,78,61,30.20,30.07,10,1,10,0.00
2013-2-4,21,12,5,11,4,-1,89,72,50,30.18,29.85,8,1,8,0.00
2013-2-5,31,22,8,26,18,5,92,82,65,30.17,29.75,11,1,11,0.00
2013-2-6,26,15,2,20,12,-1,91,86,77,30.20,30.03,8,0,8,0.00
2013-2-7,28,26,21,24,22,18,93,87,79,30.33,30.07,11,1,11,0.00
2013-2-8,30,24,19,22,17,13,86,75,56,30.46,30.30,12,1,12,0.00
2013-2-9,33,29,26,29,26,21,91,87,82,30.31,30.00,15,3,15,0.00
2013-2-10,34,31,28,33,29,26,96,93,88,30.00,29.32,9,1,9,0.00
2013-2-11,31,26,18,30,21,14,96,84,76,30.11,29.38,17,3,17,0.00
2013-2-12,37,25,15,30,20,11,92,81,62,30.12,29.88,12,1,12,0.10
2013-2-13,42,29,18,31,24,16,94,83,61,29.88,29.62,9,1,9,0.23
2013-2-14,32,27,16,31,21,6,95,78,45,30.25,29.63,17,1,17,0.04
2013-2-15,20,12,5,8,4,0,82,70,54,30.39,30.25,10,2,10,0.00
2013-2-16,22,9,-2,10,3,-6,88,77,56,30.36,30.22,4,0,5,0.00
2013-2-17,32,21,4,23,15,1,88,77,65,30.23,29.71,16,2,16,0.00
2013-2-18,34,24,8,30,19,4,89,80,73,29.88,29.58,16,3,16,0.00
2013-2-19,11,6,1,4,-2,-6,82,69,57,30.48,29.88,17,4,17,0.00
2013-2-20,20,6,-7,6,-2,-11,85,70,51,30.59,30.48,6,0,6,0.00
2013-2-21,24,15,3,13,7,-1,86,71,56,30.56,30.18,9,1,9,0.00
2013-2-22,30,24,20,24,20,12,93,86,70,30.18,29.93,8,1,8,0.01
2013-2-23,32,23,17,24,19,14,92,85,69,30.04,29.92,10,1,10,0.01
2013-2-24,37,22,5,24,16,3,93,79,56,30.18,30.04,6,0,6,0.05
2013-2-25,40,29,18,27,23,16,92,79,57,30.18,30.09,4,0,4,0.04
2013-2-26,37,28,13,28,23,12,94,83,69,30.12,29.94,10,1,10,0.00
2013-2-27,39,32,29,28,26,23,84,76,60,30.08,29.93,16,2,16,0.00
2013-2-28,31,29,24,24,21,17,79,73,69,30.29,30.08,10,2,11,0.00
2013-3-1,32,25,18,20,17,12,78,70,58,30.43,30.29,10,1,10,0.00
2013-3-2,33,20,6,16,10,4,92,65,36,30.44,30.26,7,0,7,0.00
2013-3-3,34,25,12,15,12,6,82,58,40,30.26,30.06,12,1,12,0.00
2013-3-4,28,25,23,22,18,12,92,76,54,30.11,30.02,10,1,10,0.00
2013-3-5,31,26,22,26,23,18,94,88,77,30.38,30.05,0,0,0,0.03
2013-3-6,34,23,11,22,18,8,91,79,61,30.50,30.37,0,0,0,0.11
2013-3-7,34,20,5,21,14,2,92,76,57,30.48,30.37,11,1,11,0.01
2013-3-8,40,28,13,31,23,11,92,80,66,30.41,30.15,10,1,10,0.15
2013-3-9,37,35,33,36,34,28,96,93,80,30.16,29.75,10,1,10,0.62
2013-3-10,36,34,30,34,30,26,96,87,82,30.00,29.82,15,3,16,0.02
2013-3-11,31,28,22,26,23,18,85,81,73,29.92,29.81,12,2,12,0.00
2013-3-12,30,25,21,20,17,12,84,71,53,30.26,29.90,14,3,14,0.00
2013-3-13,34,24,12,19,15,9,89,69,48,30.47,30.26,10,1,10,0.00
2013-3-14,44,32,24,30,24,18,90,76,56,30.34,30.08,8,1,8,0.02
2013-3-15,34,31,25,33,29,23,94,90,85,30.08,29.88,9,1,9,0.11
2013-3-16,29,24,14,23,15,6,92,69,53,30.32,29.95,9,2,9,0.00
2013-3-17,29,19,8,20,9,0,75,63,52,30.36,29.97,12,2,12,0.00
2013-3-18,29,23,12,27,17,6,93,80,69,29.97,29.67,18,4,18,0.00
2013-3-19,25,15,7,10,4,-1,78,64,48,30.30,29.89,16,4,16,0.00
2013-3-20,24,14,5,8,2,-2,71,60,48,30.32,30.21,14,3,14,0.00
2013-3-21,32,17,0,13,6,-4,87,64,43,30.24,30.13,8,0,8,0.02
2013-3-22,40,24,6,18,12,3,90,64,37,30.19,30.11,6,0,7,0.00
2013-3-23,42,29,15,22,18,11,90,64,38,30.23,30.15,7,0,7,0.00
2013-3-24,34,30,25,26,23,19,82,74,62,30.18,30.04,15,1,15,0.00
2013-3-25,39,32,23,23,20,16,76,63,47,30.28,30.10,11,2,15,0.00
2013-3-26,38,31,26,24,21,19,82,68,49,30.37,30.28,7,0,7,0.00
2013-3-27,45,32,20,28,20,18,94,66,37,30.41,30.36,8,0,8,0.00
2013-3-28,45,33,20,28,23,17,93,69,42,30.41,30.34,7,1,7,0.00
2013-3-29,50,38,27,36,30,23,86,75,54,30.35,30.12,10,1,10,0.00
2013-3-30,56,44,34,45,38,31,93,80,60,30.12,29.88,10,1,10,0.18
2013-3-31,41,34,24,33,25,15,93,71,40,30.15,29.84,8,3,18,0.00
2013-4-1,37,27,18,18,15,12,77,62,41,30.33,30.15,17,3,17,0.00
2013-4-2,40,29,18,20,16,13,87,62,35,30.43,30.33,10,1,10,0.00
2013-4-3,48,32,17,32,21,13,91,67,43,30.48,30.13,13,2,13,0.00
2013-4-4,54,44,34,36,29,23,79,56,37,30.21,30.05,20,3,20,0.00
2013-4-5,45,35,28,33,25,17,93,70,42,30.29,29.95,11,1,13,0.08
2013-4-6,55,42,35,45,36,30,92,78,59,29.95,29.53,12,2,13,0.12
2013-4-7,49,41,34,39,35,30,91,78,62,29.99,29.78,8,1,9,0.10
2013-4-8,48,43,39,43,40,37,96,91,81,30.08,29.72,5,1,10,0.48
2013-4-9,43,38,32,37,33,29,94,83,65,30.22,30.00,15,3,18,0.52
2013-4-10,38,34,30,30,28,24,95,77,62,30.25,29.95,14,1,17,0.21
2013-4-11,36,33,31,33,31,27,96,91,70,29.97,29.73,13,1,13,0.49
2013-4-12,37,32,28,31,29,26,96,87,70,29.90,29.73,7,1,7,0.16
2013-4-13,38,33,29,29,27,24,93,79,65,30.02,29.89,8,1,10,0.12
2013-4-14,36,32,30,35,29,25,96,88,73,30.01,29.53,11,1,11,0.15
2013-4-15,41,36,32,35,30,26,96,78,67,30.03,29.59,21,3,21,0.17
2013-4-16,49,39,33,33,29,26,86,68,46,30.37,30.02,11,1,11,0.00
2013-4-17,42,37,34,35,31,27,95,79,71,30.37,29.94,14,1,14,0.29
2013-4-18,35,33,31,33,31,30,97,95,90,29.98,29.55,16,2,16,0.12
2013-4-19,39,33,29,30,27,20,97,80,56,30.05,29.54,16,2,16,0.29
2013-4-20,45,33,16,21,16,11,88,54,28,30.37,30.05,7,1,7,0.41
2013-4-21,51,41,32,46,36,20,94,84,62,30.37,30.06,17,2,17,0.15
2013-4-22,44,37,32,38,33,31,96,87,65,30.26,30.15,12,1,12,0.23
2013-4-23,44,36,29,33,28,20,96,74,46,30.22,30.11,12,1,12,0.81
2013-4-24,53,38,26,35,29,22,92,73,39,30.13,29.95,19,2,19,0.01
2013-4-25,53,42,33,33,30,26,89,65,37,30.26,30.03,11,2,11,0.00
2013-4-26,74,58,44,48,40,31,77,53,29,30.15,30.01,18,2,18,0.01
2013-4-27,77,60,38,49,41,34,89,53,27,30.15,29.91,15,1,15,0.00
2013-4-28,82,65,52,54,49,45,90,58,31,29.91,29.62,15,3,15,0.10
2013-4-29,76,63,49,58,49,36,96,64,36,29.82,29.55,9,1,9,0.00
2013-4-30,71,65,58,60,47,28,84,55,23,29.97,29.41,10,2,14,0.00
2013-5-1,58,41,35,40,36,30,93,82,45,30.53,29.97,13,1,13,0.49
2013-5-2,47,40,34,33,30,26,93,68,46,30.60,30.47,12,2,12,0.03
2013-5-3,39,34,32,33,30,26,93,83,62,30.47,30.21,15,2,15,0.28
2013-5-4,51,40,33,44,37,31,95,87,74,30.22,30.17,9,2,9,0.10
2013-5-5,67,51,39,50,42,36,90,74,51,30.23,30.10,7,1,7,0.00
2013-5-6,77,60,41,53,46,40,97,64,35,30.14,30.02,6,0,6,0.00
2013-5-7,82,66,48,55,48,42,93,57,27,30.07,29.95,10,1,10,0.00
2013-5-8,79,66,54,58,52,47,90,65,34,30.00,29.92,12,0,12,0.06
2013-5-9,59,54,44,56,48,30,91,83,55,30.12,29.95,16,2,16,0.18
2013-5-10,69,53,37,45,30,22,77,46,17,30.15,29.90,10,1,10,0.02
2013-5-11,55,48,42,46,28,20,78,48,28,30.21,29.89,19,4,19,0.00
2013-5-12,60,47,34,26,23,17,66,41,20,30.27,30.12,16,2,16,0.00
2013-5-13,72,55,34,49,36,24,78,50,28,30.15,29.66,21,2,21,0.00
2013-5-14,100,75,50,59,48,34,90,45,16,29.69,29.42,17,2,17,0.00
2013-5-15,81,68,54,50,47,44,72,49,29,29.91,29.65,12,2,12,0.00
2013-5-16,85,70,52,53,46,35,78,45,25,29.92,29.82,12,1,12,0.00
2013-5-17,68,58,55,55,52,36,95,80,31,30.00,29.88,13,1,13,0.37
2013-5-18,81,65,55,68,60,54,98,85,57,30.03,29.78,15,1,15,2.33
2013-5-19,82,68,63,68,64,61,97,87,60,29.80,29.54,13,1,17,1.65
2013-5-20,72,66,58,64,61,56,98,86,63,29.59,29.48,16,2,16,0.61
2013-5-21,64,58,50,62,56,49,97,94,85,29.71,29.51,7,0,7,0.11
2013-5-22,54,50,46,51,48,45,97,93,73,30.01,29.70,14,2,14,0.29
2013-5-23,65,54,44,46,38,31,87,57,32,30.37,30.01,13,2,13,0.00
2013-5-24,70,55,37,53,41,31,91,62,36,30.43,30.19,13,1,13,0.18
2013-5-25,61,56,52,51,49,45,94,78,62,30.28,30.24,15,2,15,0.01
2013-5-26,59,55,51,50,45,38,75,68,51,30.25,30.06,17,2,17,0.00
2013-5-27,61,57,54,56,52,49,94,84,71,30.07,29.85,8,1,11,0.05
2013-5-28,61,56,53,58,54,51,97,93,87,29.85,29.73,8,0,8,0.12
2013-5-29,76,65,54,71,62,53,97,90,77,29.84,29.64,10,1,10,0.69
2013-5-30,78,69,63,68,64,62,98,84,62,29.67,29.50,20,2,20,0.27
2013-5-31,78,68,60,62,59,53,97,75,42,29.55,29.49,19,2,19,0.28
2013-6-1,74,61,52,63,54,44,93,78,54,29.95,29.54,11,1,11,0.27
2013-6-2,70,58,49,48,43,40,77,59,36,30.10,29.94,11,1,11,0.00
2013-6-3,74,60,45,50,46,42,94,64,36,30.09,29.94,8,0,8,0.00
2013-6-4,64,59,55,55,51,48,90,75,67,30.09,30.00,11,1,12,0.02
2013-6-5,60,56,54,58,54,50,96,93,83,30.07,29.96,8,0,8,0.18
2013-6-6,57,54,51,54,52,50,96,92,84,30.05,29.98,7,1,7,0.00
2013-6-7,70,59,53,56,53,52,94,80,56,30.08,29.93,5,0,5,0.00
2013-6-8,74,63,52,58,55,50,95,75,51,29.94,29.89,12,1,12,0.00
2013-6-9,70,60,56,64,58,55,96,92,80,29.91,29.77,14,1,14,0.61
2013-6-10,80,66,57,66,61,56,98,85,56,29.86,29.80,7,0,7,0.00
2013-6-11,79,68,56,69,63,55,98,87,68,29.90,29.78,5,0,5,0.00
2013-6-12,76,67,62,69,63,54,99,87,61,29.91,29.75,12,1,12,0.97
2013-6-13,80,69,57,61,55,51,84,63,43,30.09,29.91,12,1,12,0.00
2013-6-14,81,69,56,63,59,51,90,70,53,30.08,29.86,13,1,13,0.01
2013-6-15,79,70,62,70,65,60,96,84,60,29.90,29.82,13,0,13,0.09
2013-6-16,89,71,56,62,57,48,98,67,26,29.92,29.82,12,1,12,0.02
2013-6-17,84,72,59,62,58,54,91,64,39,30.00,29.85,12,1,12,0.00
2013-6-18,79,67,56,63,57,51,85,70,50,30.08,30.00,10,1,10,0.00
2013-6-19,87,72,58,66,60,55,93,67,37,30.06,29.92,9,1,9,0.00
2013-6-20,91,80,69,71,65,60,79,60,42,29.99,29.84,12,2,12,0.00
2013-6-21,83,72,63,72,66,61,98,84,60,30.04,29.71,18,1,18,2.03
2013-6-22,83,72,65,73,68,64,98,88,68,30.00,29.81,12,0,12,0.47
2013-6-23,86,75,68,71,68,64,96,81,54,29.87,29.68,19,2,19,0.29
2013-6-24,85,72,63,72,67,62,98,85,64,29.90,29.78,10,0,10,0.03
2013-6-25,87,76,64,76,69,62,96,82,64,29.82,29.68,11,1,11,0.00
2013-6-26,91,80,71,78,72,65,98,78,50,29.79,29.63,10,1,10,0.00
2013-6-27,89,79,68,69,63,55,91,61,34,29.79,29.75,15,1,15,0.00
2013-6-28,80,72,66,68,62,57,91,71,57,29.79,29.72,11,1,11,0.10
2013-6-29,78,69,62,63,59,49,96,73,39,29.97,29.73,7,1,15,0.45
2013-6-30,82,69,54,59,54,48,94,61,35,30.11,29.97,7,1,11,0.00
2013-7-1,85,73,57,64,58,54,96,63,37,30.18,30.10,9,0,9,0.00
2013-7-2,85,72,57,61,56,50,82,59,37,30.15,30.03,4,0,9,0.00
2013-7-3,86,71,56,64,58,51,97,67,30,30.07,29.93,7,0,7,0.00
2013-7-4,90,77,63,66,59,56,83,57,34,29.95,29.83,16,2,16,0.00
2013-7-5,89,79,70,67,63,59,71,57,43,29.88,29.77,15,2,15,0.00
2013-7-6,92,82,74,72,66,62,68,59,46,29.86,29.77,9,2,10,0.00
2013-7-7,92,82,74,74,69,65,83,65,51,29.85,29.77,7,1,9,0.00
2013-7-8,91,78,67,73,69,65,94,76,48,29.97,29.84,6,0,6,0.00
2013-7-9,87,78,70,75,70,65,96,79,62,29.93,29.73,13,1,13,0.37
2013-7-10,83,73,62,66,58,54,84,63,41,30.03,29.88,8,1,8,0.00
2013-7-11,87,74,59,66,60,56,97,66,36,30.11,29.96,9,1,9,0.02
2013-7-12,89,78,67,68,62,58,80,58,43,30.00,29.88,13,3,14,0.00
2013-7-13,81,73,64,72,65,59,98,77,57,30.06,29.90,18,2,18,3.84
2013-7-14,88,76,69,70,66,62,87,72,51,30.16,30.05,13,1,13,0.00
2013-7-15,90,79,66,72,68,64,96,72,49,30.22,30.13,9,1,9,0.00
2013-7-16,94,84,74,76,72,70,91,70,48,30.18,30.13,11,1,11,0.00
2013-7-17,92,80,72,73,72,70,93,77,52,30.22,30.07,2,0,6,0.00
2013-7-18,94,86,77,76,72,70,82,65,47,30.07,29.73,17,2,17,0.00
2013-7-19,87,81,72,72,66,60,85,63,44,29.86,29.68,14,1,14,0.03
2013-7-20,84,73,63,68,62,58,91,71,52,29.94,29.84,7,0,7,0.00
2013-7-21,83,70,58,71,62,51,96,77,60,29.95,29.78,6,1,10,0.98
2013-7-22,90,76,66,74,66,57,95,74,51,29.83,29.65,10,1,10,0.00
2013-7-23,77,68,60,60,56,53,86,65,46,29.99,29.83,9,1,9,0.00
2013-7-24,81,68,56,63,58,52,90,72,50,30.08,29.96,6,0,6,0.00
2013-7-25,84,73,61,70,63,59,93,72,49,29.98,29.88,9,1,9,0.02
2013-7-26,72,65,58,65,57,47,92,75,59,30.08,29.88,11,1,11,0.04
2013-7-27,65,58,53,54,49,46,84,74,56,30.08,29.94,11,1,11,0.02
2013-7-28,75,62,52,58,52,46,89,70,49,30.07,29.97,8,0,8,0.00
2013-7-29,79,66,51,61,56,50,97,73,46,30.14,30.07,4,1,7,0.00
2013-7-30,73,67,63,66,62,58,94,84,73,30.10,30.04,4,0,5,0.02
2013-7-31,83,70,60,70,61,53,98,77,44,30.07,29.97,9,0,9,0.01
2013-8-1,84,70,53,62,57,51,95,66,38,30.04,29.85,7,0,8,0.00
2013-8-2,80,68,57,62,56,51,95,67,40,30.03,29.83,6,0,6,0.00
2013-8-3,82,66,52,61,53,50,97,66,36,30.19,30.03,8,0,8,0.00
2013-8-4,75,64,51,61,55,49,96,76,51,30.24,30.01,7,0,7,0.00
2013-8-5,82,69,61,70,64,56,97,85,63,30.03,29.77,7,0,10,0.73
2013-8-6,86,71,57,70,63,56,97,79,54,29.84,29.66,14,1,14,0.35
2013-8-7,79,70,57,64,55,50,99,63,38,30.03,29.91,12,0,12,0.00
2013-8-8,77,62,54,61,57,53,98,84,54,30.05,29.99,10,0,10,0.00
2013-8-9,67,66,65,54,53,52,67,62,60,30.12,30.10,1,0,1,0.00
2013-8-10,80,69,59,59,55,50,90,64,40,30.18,30.08,8,0,8,0.00
2013-8-11,82,70,63,68,63,59,92,80,58,30.09,29.98,5,0,5,0.00
2013-8-12,82,71,60,64,59,54,97,69,41,30.06,29.98,12,0,12,0.00
2013-8-13,76,65,54,57,51,44,95,64,35,30.19,30.06,9,0,9,0.00
2013-8-14,80,66,53,60,54,50,97,70,40,30.20,30.10,10,0,10,0.00
2013-8-15,82,68,52,64,56,50,92,69,43,30.14,30.07,7,0,8,0.00
2013-8-16,83,70,56,63,57,54,95,68,40,30.19,30.13,9,0,9,0.00
2013-8-17,83,69,55,64,57,54,98,69,39,30.20,30.09,11,1,11,0.00
2013-8-18,84,72,58,62,59,55,94,65,43,30.14,29.99,13,1,13,0.00
2013-8-19,88,76,67,71,65,59,82,71,53,30.02,29.87,11,1,11,0.00
2013-8-20,90,80,69,75,70,65,88,74,58,29.90,29.82,11,1,11,0.00
2013-8-21,88,79,73,80,73,68,95,83,66,29.97,29.81,10,1,10,0.13
2013-8-22,87,76,66,68,58,52,78,54,33,30.11,29.95,7,0,7,0.00
2013-8-23,87,73,58,69,61,52,85,68,49,30.14,30.01,10,1,10,0.00
2013-8-24,89,79,69,75,70,64,87,74,58,30.06,29.91,15,2,15,0.00
2013-8-25,95,86,78,77,74,71,80,68,54,29.98,29.89,15,2,15,0.00
2013-8-26,96,86,77,78,75,73,89,71,55,29.95,29.80,11,1,11,0.00
2013-8-27,96,85,76,80,75,72,87,74,55,29.88,29.75,9,0,9,0.00
2013-8-28,93,80,70,76,72,66,97,79,44,29.98,29.87,4,0,6,0.00
2013-8-29,94,83,75,79,73,69,93,74,45,29.98,29.81,12,1,12,0.00
2013-8-30,85,77,69,72,68,63,89,74,57,29.90,29.78,12,0,12,0.00
2013-8-31,89,75,63,71,66,62,96,77,51,29.87,29.68,5,0,7,0.09
2013-9-1,75,70,62,66,61,54,91,75,62,29.97,29.71,8,0,8,0.00
2013-9-2,70,60,52,57,53,50,95,77,58,30.10,29.96,6,0,6,0.00
2013-9-3,79,62,48,61,55,47,98,79,47,30.12,30.00,6,0,6,0.00
2013-9-4,88,71,57,70,62,56,97,76,46,30.15,30.01,6,0,6,0.00
2013-9-5,84,71,60,69,62,54,86,74,57,30.21,30.09,7,0,7,0.00
2013-9-6,92,79,68,70,67,64,95,70,43,30.09,29.84,12,1,12,0.01
2013-9-7,93,80,68,74,68,64,92,68,45,29.98,29.83,10,0,10,0.00
2013-9-8,77,70,65,66,63,58,86,77,65,30.03,29.87,12,0,12,0.00
2013-9-9,94,79,69,76,70,65,95,77,50,29.88,29.60,10,1,10,0.01
2013-9-10,82,74,67,73,66,61,94,76,57,29.97,29.72,7,0,7,0.00
2013-9-11,87,73,62,66,59,51,96,65,32,30.04,29.97,11,0,11,0.00
2013-9-12,75,66,55,57,50,45,89,60,38,30.23,30.04,9,0,9,0.00
2013-9-13,72,58,44,50,47,43,97,68,41,30.29,30.10,5,0,5,0.00
2013-9-14,75,60,47,57,50,44,96,72,42,30.11,29.90,10,1,10,0.51
2013-9-15,66,59,48,59,54,45,97,86,68,30.34,29.89,12,0,12,0.47
2013-9-16,69,54,40,50,45,39,97,74,43,30.44,30.28,7,0,7,0.00
2013-9-17,68,56,46,58,51,43,96,82,64,30.28,29.96,14,1,14,0.04
2013-9-18,75,67,59,70,65,58,98,93,82,29.96,29.68,14,1,14,0.04
2013-9-19,78,70,64,72,67,60,98,89,73,29.79,29.64,12,0,12,0.31
2013-9-20,66,59,50,59,54,48,94,84,62,29.94,29.77,7,0,7,0.10
2013-9-21,68,54,46,53,48,45,96,81,54,30.01,29.93,1,0,5,0.01
2013-9-22,75,58,45,60,52,44,97,80,55,30.00,29.86,13,1,13,0.00
2013-9-23,74,62,52,57,53,48,90,72,51,29.97,29.87,14,1,14,0.00
2013-9-24,78,61,49,61,53,47,96,77,49,29.99,29.91,8,0,8,0.00
2013-9-25,76,61,49,58,53,48,98,77,49,29.99,29.87,9,1,9,0.00
2013-9-26,82,67,54,64,58,51,90,72,50,29.94,29.83,10,2,15,0.00
2013-9-27,84,73,65,66,62,60,84,70,49,29.92,29.78,12,2,16,0.00
2013-9-28,72,61,48,64,55,45,94,82,67,29.95,29.63,8,1,15,0.17
2013-9-29,77,61,45,53,47,42,94,64,34,29.99,29.81,12,1,12,0.00
2013-9-30,80,68,58,55,52,48,72,56,41,29.81,29.59,10,2,19,0.00
2013-10-1,78,67,50,54,47,36,74,51,25,29.99,29.58,13,1,13,0.00
2013-10-2,76,59,43,56,46,39,96,67,30,30.06,29.84,11,1,11,0.51
2013-10-3,61,58,56,58,57,55,97,94,89,29.93,29.80,9,0,9,0.18
2013-10-4,58,57,55,57,55,54,97,94,89,30.00,29.85,10,0,10,0.22
2013-10-5,62,55,42,59,52,41,98,90,67,29.90,29.73,11,0,11,0.11
2013-10-6,56,46,39,53,45,38,99,95,83,29.88,29.71,5,0,5,0.09
2013-10-7,69,52,40,54,45,40,99,79,41,30.01,29.87,7,0,7,0.01
2013-10-8,77,63,47,51,47,43,87,58,36,30.00,29.84,15,2,15,0.00
2013-10-9,76,65,52,56,51,48,89,61,43,30.04,29.94,14,2,14,0.00
2013-10-10,78,61,47,57,50,45,95,71,42,30.05,29.89,13,1,13,0.00
2013-10-11,75,64,52,62,55,50,92,73,52,29.90,29.63,21,2,21,0.12
2013-10-12,59,50,41,56,43,39,93,77,64,30.20,29.71,6,1,15,0.00
2013-10-13,63,47,35,46,38,33,97,75,39,30.48,30.20,5,0,5,0.01
2013-10-14,54,47,38,48,42,37,96,82,64,30.45,30.00,12,0,12,0.40
2013-10-15,54,50,47,53,48,46,97,96,94,30.02,29.70,7,1,11,0.82
2013-10-16,56,46,35,46,41,34,96,85,57,30.00,29.84,8,0,8,0.01
2013-10-17,61,47,34,46,41,33,97,81,51,29.92,29.80,7,0,7,0.09
2013-10-18,55,44,38,42,37,32,95,77,45,30.01,29.88,10,0,10,0.04
2013-10-19,49,40,32,42,36,31,94,87,72,29.89,29.72,7,1,7,0.03
2013-10-20,47,37,29,42,35,28,96,90,74,29.93,29.65,8,0,8,0.02
2013-10-21,39,35,27,34,26,24,89,71,58,30.02,29.92,12,1,12,0.00
2013-10-22,41,33,22,34,28,21,96,84,67,30.09,30.01,5,0,5,0.00
2013-10-23,40,35,31,33,27,22,93,74,57,30.17,30.06,9,1,9,0.00
2013-10-24,45,38,33,33,28,22,81,68,56,30.37,30.16,9,1,9,0.00
2013-10-25,58,44,27,42,35,25,93,72,53,30.38,29.82,17,2,17,0.00
2013-10-26,50,44,36,42,32,29,77,64,52,30.14,29.82,13,2,13,0.00
2013-10-27,60,43,29,38,32,26,88,66,42,30.18,29.86,13,1,13,0.00
2013-10-28,45,37,32,31,26,21,83,64,44,30.48,30.18,13,1,13,0.00
2013-10-29,42,38,30,37,30,21,92,74,67,30.46,30.14,5,0,5,0.02
2013-10-30,49,45,39,49,44,37,98,96,92,30.14,29.70,7,0,7,0.13
2013-10-31,50,43,40,49,42,38,98,94,88,29.70,29.44,5,1,9,0.02
2013-11-1,53,44,36,40,38,31,94,80,58,29.90,29.45,9,1,9,0.00
2013-11-2,52,40,32,37,32,29,94,76,47,30.15,29.90,7,0,7,0.00
2013-11-3,55,44,32,38,34,29,94,69,46,30.16,29.92,23,3,23,0.00
2013-11-4,48,44,33,46,38,32,97,81,62,30.20,29.87,9,2,23,0.17
2013-11-5,45,35,26,39,31,25,98,87,57,30.30,30.07,12,0,12,0.04
2013-11-6,42,34,30,32,28,25,96,80,56,30.23,30.07,11,1,11,0.21
2013-11-7,37,30,24,32,27,22,95,89,77,30.31,30.22,9,1,9,0.01
2013-11-8,46,35,21,41,29,20,96,80,57,30.27,29.65,16,2,16,0.00
2013-11-9,45,41,36,41,34,27,86,75,60,30.25,29.67,20,3,20,0.00
2013-11-10,43,38,31,32,30,26,84,73,61,30.38,30.13,13,1,13,0.00
2013-11-11,39,26,16,32,15,8,82,64,49,30.81,30.16,13,2,13,0.00
2013-11-12,30,20,12,15,11,7,82,68,45,30.88,30.54,11,1,11,0.00
2013-11-13,51,37,22,36,26,14,74,62,50,30.54,29.93,18,2,18,0.00
2013-11-14,52,40,30,39,34,29,94,79,61,29.93,29.80,9,1,9,0.00
2013-11-15,56,42,27,42,35,26,97,80,53,29.90,29.69,11,1,11,0.00
2013-11-16,48,44,40,48,42,35,98,91,74,29.69,29.26,13,1,13,0.20
2013-11-17,45,40,32,42,36,25,96,85,76,29.87,29.34,17,2,17,0.00
2013-11-18,36,30,21,26,22,19,90,74,57,30.33,29.87,18,2,18,0.00
2013-11-19,46,34,19,32,26,18,94,74,54,30.34,29.98,19,2,19,0.00
2013-11-20,44,41,37,35,32,27,92,71,54,30.08,29.94,14,2,14,0.00
2013-11-21,38,32,25,37,28,17,95,88,73,30.57,30.08,10,1,10,0.00
2013-11-22,33,23,13,18,13,4,86,65,38,30.71,30.53,12,2,12,0.00
2013-11-23,19,12,7,6,3,-1,82,67,44,30.94,30.71,10,1,10,0.00
2013-11-24,31,20,5,18,10,2,87,67,50,30.82,30.08,18,3,18,0.00
2013-11-25,39,34,28,30,24,17,81,69,60,30.14,29.98,18,3,18,0.00
2013-11-26,31,21,14,22,9,3,73,59,46,30.47,30.13,18,3,18,0.00
2013-11-27,24,18,7,12,9,3,88,68,55,30.48,30.16,10,1,10,0.00
2013-11-28,29,22,10,16,13,7,88,67,52,30.60,30.16,11,1,11,0.00
2013-11-29,33,23,8,23,16,6,92,76,57,30.61,30.22,12,1,12,0.00
2013-11-30,43,31,22,30,25,20,94,77,58,30.23,30.09,2,0,6,0.00
2013-12-1,35,27,17,27,23,16,95,84,70,30.25,29.99,2,0,3,0.00
2013-12-2,37,32,26,34,30,24,96,90,80,29.99,29.64,9,1,9,0.08
2013-12-3,35,34,32,34,33,31,97,96,95,29.84,29.63,7,0,7,0.13
2013-12-4,32,28,14,31,27,9,97,94,83,29.83,29.52,9,1,9,0.00
2013-12-5,14,6,-1,9,1,-5,86,80,71,30.46,29.78,13,2,13,0.00
2013-12-6,6,-2,-7,-1,-7,-11,86,80,69,30.79,30.46,9,1,9,0.00
2013-12-7,2,-5,-12,-6,-10,-16,84,78,63,30.87,30.71,9,1,9,0.00
2013-12-8,13,7,-3,8,3,-7,90,84,78,30.72,30.14,9,0,9,0.00
2013-12-9,11,2,-3,8,-2,-8,89,81,73,30.22,30.00,12,1,12,0.00
2013-12-10,13,7,2,9,2,-3,90,79,68,30.39,29.89,10,1,10,0.00
2013-12-11,6,-2,-8,0,-9,-14,79,72,61,30.69,30.39,9,1,9,0.00
2013-12-12,20,12,1,12,7,-5,87,77,65,30.45,30.24,6,0,6,0.00
2013-12-13,17,14,12,12,9,7,90,79,72,30.38,30.22,11,1,11,0.00
2013-12-14,18,10,0,11,6,-4,88,82,72,30.37,30.18,8,1,8,0.00
2013-12-15,7,2,-1,-2,-5,-7,80,71,57,30.27,30.21,7,1,7,0.00
2013-12-16,21,10,1,19,5,-8,93,80,66,30.25,30.01,14,1,14,0.00
2013-12-17,32,23,7,28,17,4,91,79,68,30.20,29.97,14,2,14,0.00
2013-12-18,38,23,6,29,18,3,94,82,66,30.16,29.72,11,1,11,0.01
2013-12-19,26,19,16,24,14,10,91,80,72,30.15,29.88,12,2,12,0.00
2013-12-20,20,18,15,15,14,12,89,84,79,30.11,29.93,9,1,9,0.00
2013-12-21,23,20,17,18,15,14,86,82,74,30.08,29.93,8,1,8,0.00
2013-12-22,21,15,5,17,12,1,87,84,77,30.33,30.02,8,1,8,0.00
2013-12-23,5,0,-6,1,-5,-11,84,78,70,30.63,30.33,10,2,10,0.00
2013-12-24,11,0,-13,6,-6,-18,87,76,55,30.63,30.25,12,1,12,0.00
2013-12-25,30,17,9,24,13,6,91,83,66,30.25,30.13,8,1,12,0.00
2013-12-26,28,19,7,22,16,5,93,87,76,30.25,30.16,4,0,4,0.00
2013-12-27,41,27,10,32,23,8,96,87,70,30.25,29.97,16,1,16,0.21
2013-12-28,49,31,21,34,27,19,97,86,54,30.05,29.69,14,1,14,0.19
2013-12-29,21,1,-12,18,-7,-18,89,70,56,30.43,30.05,17,2,17,0.00
2013-12-30,2,-5,-15,-3,-10,-19,86,81,76,30.43,30.32,5,0,5,0.00
2013-12-31,3,-5,-10,-4,-10,-14,87,78,69,30.55,30.33,4,0,6,0.00
2014-1-1,3,-2,-7,-5,-9,-15,73,71,68,30.63,30.54,7,1,7,0.00
2014-1-2,6,-3,-12,-7,-11,-17,80,68,49,30.64,30.51,4,0,4,0.00